Time,TemperatureF,DewpointF,PressureIn,WindDirection,WindDirectionDegrees,WindSpeedMPH,WindSpeedGustMPH,Humidity,HourlyPrecipIn,Conditions,Clouds,dailyrainin,SoftwareType,DateUTC
2013-02-03 00:00:00,28.3,26.3,30.10,WNW,293,3.0,6.0,92,0.00,,,0.00,Wunderground v.1.15,2013-02-03 05:00:00,
2013-02-03 00:04:00,28.0,26.0,30.10,WNW,297,4.0,6.0,92,0.00,,,0.00,Wunderground v.1.15,2013-02-03 05:04:00,
2013-02-03 00:10:00,27.9,25.9,30.10,WNW,293,3.0,3.0,92,0.00,,,0.00,Wunderground v.1.15,2013-02-03 05:10:00,
2013-02-03 00:15:00,27.7,25.9,30.10,WNW,291,3.0,5.0,93,0.00,,,0.00,Wunderground v.1.15,2013-02-03 05:15:00,
2013-02-03 00:20:00,27.5,25.7,30.10,NW,315,3.0,6.0,93,0.00,,,0.00,Wunderground v.1.15,2013-02-03 05:20:00,
2013-02-03 00:29:00,27.1,25.3,30.10,West,269,3.0,6.0,93,0.00,,,0.00,Wunderground v.1.15,2013-02-03 05:29:00,
2013-02-03 00:35:00,27.1,25.3,30.09,NNW,330,3.0,6.0,93,0.00,,,0.00,Wunderground v.1.15,2013-02-03 05:35:00,
2013-02-03 00:40:00,27.0,25.2,30.09,WNW,298,4.0,6.0,93,0.00,,,0.00,Wunderground v.1.15,2013-02-03 05:40:00,
2013-02-03 00:44:00,26.9,25.1,30.09,WNW,297,4.0,6.0,93,0.00,,,0.00,Wunderground v.1.15,2013-02-03 05:44:00,
2013-02-03 00:49:00,26.7,24.9,30.09,WNW,298,4.0,6.0,93,0.00,,,0.00,Wunderground v.1.15,2013-02-03 05:49:00,
2013-02-03 00:55:00,26.5,24.8,30.09,NW,316,4.0,6.0,93,0.00,,,0.00,Wunderground v.1.15,2013-02-03 05:55:00,
2013-02-03 01:00:00,26.4,24.7,30.09,WNW,301,4.0,9.0,93,0.00,,,0.00,Wunderground v.1.15,2013-02-03 06:00:00,
2013-02-03 01:04:00,26.3,24.6,30.08,NW,304,4.0,9.0,93,0.00,,,0.00,Wunderground v.1.15,2013-02-03 06:04:00,
2013-02-03 01:15:00,26.3,24.6,30.08,WNW,303,4.0,9.0,93,0.00,,,0.00,Wunderground v.1.15,2013-02-03 06:15:00,
2013-02-03 01:20:00,26.1,24.1,30.08,WNW,295,4.0,9.0,92,0.00,,,0.00,Wunderground v.1.15,2013-02-03 06:20:00,
2013-02-03 01:25:00,25.9,23.6,30.08,WNW,294,5.0,10.0,91,0.00,,,0.00,Wunderground v.1.15,2013-02-03 06:25:00,
2013-02-03 01:29:00,25.7,23.4,30.07,WNW,303,5.0,5.0,91,0.00,,,0.00,Wunderground v.1.15,2013-02-03 06:29:00,
2013-02-03 01:35:00,25.8,23.5,30.07,WNW,288,4.0,9.0,91,0.00,,,0.00,Wunderground v.1.15,2013-02-03 06:35:00,
2013-02-03 01:40:00,25.8,23.8,30.07,NW,316,2.0,2.0,92,0.00,,,0.00,Wunderground v.1.15,2013-02-03 06:40:00,
2013-02-03 01:45:00,25.8,23.8,30.07,NNW,348,1.0,9.0,92,0.00,,,0.00,Wunderground v.1.15,2013-02-03 06:45:00,
2013-02-03 01:54:00,25.5,23.2,30.07,NW,314,1.0,9.0,91,0.00,,,0.00,Wunderground v.1.15,2013-02-03 06:54:00,
2013-02-03 02:00:00,25.3,23.0,30.07,WNW,303,2.0,2.0,91,0.00,,,0.00,Wunderground v.1.15,2013-02-03 07:00:00,
2013-02-03 02:05:00,25.3,23.0,30.07,NW,307,2.0,4.0,91,0.00,,,0.00,Wunderground v.1.15,2013-02-03 07:05:00,
2013-02-03 02:10:00,25.1,22.8,30.06,NNW,332,1.0,1.0,91,0.00,,,0.00,Wunderground v.1.15,2013-02-03 07:10:00,
2013-02-03 02:14:00,25.0,22.7,30.07,NNW,328,1.0,4.0,91,0.00,,,0.00,Wunderground v.1.15,2013-02-03 07:14:00,
2013-02-03 02:19:00,25.0,22.7,30.07,NW,307,1.0,1.0,91,0.00,,,0.00,Wunderground v.1.15,2013-02-03 07:19:00,
2013-02-03 02:25:00,25.0,22.7,30.07,NW,314,0.0,4.0,91,0.00,,,0.00,Wunderground v.1.15,2013-02-03 07:25:00,
2013-02-03 02:30:00,25.0,22.7,30.07,WNW,298,0.0,4.0,91,0.00,,,0.00,Wunderground v.1.15,2013-02-03 07:30:00,
2013-02-03 02:34:00,25.0,22.5,30.06,WNW,301,0.0,4.0,90,0.00,,,0.00,Wunderground v.1.15,2013-02-03 07:34:00,
2013-02-03 02:39:00,24.9,22.4,30.06,NNW,336,0.0,4.0,90,0.00,,,0.00,Wunderground v.1.15,2013-02-03 07:39:00,
2013-02-03 02:45:00,24.9,22.1,30.06,NNW,328,0.0,4.0,89,0.00,,,0.00,Wunderground v.1.15,2013-02-03 07:45:00,
2013-02-03 02:50:00,24.9,22.1,30.06,WNW,288,0.0,4.0,89,0.00,,,0.00,Wunderground v.1.15,2013-02-03 07:50:00,
2013-02-03 02:55:00,25.0,21.9,30.06,NW,308,0.0,4.0,88,0.00,,,0.00,Wunderground v.1.15,2013-02-03 07:55:00,
2013-02-03 03:00:00,25.0,21.9,30.06,NW,307,0.0,0.0,88,0.00,,,0.00,Wunderground v.1.15,2013-02-03 08:00:00,
2013-02-03 03:05:00,25.0,21.9,30.06,NNW,337,0.0,0.0,88,0.00,,,0.00,Wunderground v.1.15,2013-02-03 08:05:00,
2013-02-03 03:10:00,25.1,21.8,30.06,North,349,0.0,0.0,87,0.00,,,0.00,Wunderground v.1.15,2013-02-03 08:10:00,
2013-02-03 03:15:00,25.1,21.5,30.06,NNW,346,0.0,0.0,86,0.00,,,0.00,Wunderground v.1.15,2013-02-03 08:15:00,
2013-02-03 03:19:00,23.6,20.0,30.05,NNW,347,0.0,0.0,86,0.00,,,0.00,Wunderground v.1.15,2013-02-03 08:19:00,
2013-02-03 03:24:00,23.6,20.0,30.05,NNW,347,0.0,0.0,86,0.00,,,0.00,Wunderground v.1.15,2013-02-03 08:24:00,
2013-02-03 03:30:00,-999.9,-99.9,30.05,North,32767,-999.0,0.0,255,-99.99,,,0.00,Wunderground v.1.15,2013-02-03 08:30:00,
2013-02-03 03:39:00,-999.9,-99.9,30.05,North,32767,-999.0,0.0,255,-99.99,,,0.00,Wunderground v.1.15,2013-02-03 08:39:00,
2013-02-03 03:44:00,-999.9,-99.9,30.05,North,32767,-999.0,0.0,255,-99.99,,,0.00,Wunderground v.1.15,2013-02-03 08:44:00,
2013-02-03 03:50:00,-999.9,-99.9,30.04,North,32767,-999.0,0.0,255,-99.99,,,0.00,Wunderground v.1.15,2013-02-03 08:50:00,
2013-02-03 04:00:00,-999.9,-99.9,30.04,North,32767,-999.0,0.0,255,-99.99,,,0.00,Wunderground v.1.15,2013-02-03 09:00:00,
2013-02-03 04:04:00,-999.9,-99.9,30.04,North,32767,-999.0,0.0,255,-99.99,,,0.00,Wunderground v.1.15,2013-02-03 09:04:00,
2013-02-03 04:10:00,-999.9,-99.9,30.04,North,32767,-999.0,0.0,255,-99.99,,,0.00,Wunderground v.1.15,2013-02-03 09:10:00,
2013-02-03 04:15:00,-999.9,-99.9,30.03,North,32767,-999.0,0.0,255,-99.99,,,0.00,Wunderground v.1.15,2013-02-03 09:15:00,
2013-02-03 04:24:00,-999.9,-99.9,30.03,North,32767,-999.0,0.0,255,-99.99,,,0.00,Wunderground v.1.15,2013-02-03 09:24:00,
2013-02-03 04:30:00,-999.9,-99.9,30.03,North,32767,-999.0,0.0,255,-99.99,,,0.00,Wunderground v.1.15,2013-02-03 09:30:00,
2013-02-03 04:40:00,-999.9,-99.9,30.02,North,32767,-999.0,0.0,255,-99.99,,,0.00,Wunderground v.1.15,2013-02-03 09:40:00,
2013-02-03 04:44:00,-999.9,-99.9,30.02,North,32767,-999.0,0.0,255,-99.99,,,0.00,Wunderground v.1.15,2013-02-03 09:44:00,
2013-02-03 04:55:00,-999.9,-99.9,30.03,North,32767,-999.0,0.0,255,-99.99,,,0.00,Wunderground v.1.15,2013-02-03 09:55:00,
2013-02-03 05:00:00,-999.9,-99.9,30.02,North,32767,-999.0,0.0,255,-99.99,,,0.00,Wunderground v.1.15,2013-02-03 10:00:00,
2013-02-03 05:04:00,-999.9,-99.9,30.02,North,32767,-999.0,0.0,255,-99.99,,,0.00,Wunderground v.1.15,2013-02-03 10:04:00,
2013-02-03 05:09:00,-999.9,-99.9,30.02,North,32767,-999.0,0.0,255,-99.99,,,0.00,Wunderground v.1.15,2013-02-03 10:09:00,
2013-02-03 05:15:00,-999.9,-99.9,30.02,North,32767,-999.0,0.0,255,-99.99,,,0.00,Wunderground v.1.15,2013-02-03 10:15:00,
2013-02-03 05:20:00,-999.9,-99.9,30.02,North,32767,-999.0,0.0,255,-99.99,,,0.00,Wunderground v.1.15,2013-02-03 10:20:00,
2013-02-03 05:25:00,-999.9,-99.9,30.02,North,32767,-999.0,0.0,255,-99.99,,,0.00,Wunderground v.1.15,2013-02-03 10:25:00,
2013-02-03 05:29:00,-999.9,-99.9,30.01,North,32767,-999.0,0.0,255,-99.99,,,0.00,Wunderground v.1.15,2013-02-03 10:29:00,
2013-02-03 05:34:00,-999.9,-99.9,30.01,North,32767,-999.0,0.0,255,-99.99,,,0.00,Wunderground v.1.15,2013-02-03 10:34:00,
2013-02-03 05:40:00,-999.9,-99.9,30.01,North,32767,-999.0,0.0,255,-99.99,,,0.00,Wunderground v.1.15,2013-02-03 10:40:00,
2013-02-03 05:45:00,-999.9,-99.9,30.00,North,32767,-999.0,0.0,255,-99.99,,,0.00,Wunderground v.1.15,2013-02-03 10:45:00,
2013-02-03 05:50:00,-999.9,-99.9,30.00,North,32767,-999.0,0.0,255,-99.99,,,0.00,Wunderground v.1.15,2013-02-03 10:50:00,
2013-02-03 06:00:00,-999.9,-99.9,30.00,North,32767,-999.0,0.0,255,-99.99,,,0.00,Wunderground v.1.15,2013-02-03 11:00:00,
2013-02-03 06:05:00,-999.9,-99.9,30.00,North,32767,-999.0,0.0,255,-99.99,,,0.00,Wunderground v.1.15,2013-02-03 11:05:00,
2013-02-03 06:10:00,-999.9,-99.9,30.00,North,32767,-999.0,0.0,255,-99.99,,,0.00,Wunderground v.1.15,2013-02-03 11:10:00,
2013-02-03 06:14:00,-999.9,-99.9,30.00,North,32767,-999.0,0.0,255,-99.99,,,0.00,Wunderground v.1.15,2013-02-03 11:14:00,
2013-02-03 06:19:00,-999.9,-99.9,30.00,North,32767,-999.0,0.0,255,-99.99,,,0.00,Wunderground v.1.15,2013-02-03 11:19:00,
2013-02-03 06:25:00,-999.9,-99.9,30.00,North,32767,-999.0,0.0,255,-99.99,,,0.00,Wunderground v.1.15,2013-02-03 11:25:00,
2013-02-03 06:34:00,-999.9,-99.9,30.00,North,32767,-999.0,0.0,255,-99.99,,,0.00,Wunderground v.1.15,2013-02-03 11:34:00,
2013-02-03 06:39:00,-999.9,-99.9,30.00,North,32767,-999.0,0.0,255,-99.99,,,0.00,Wunderground v.1.15,2013-02-03 11:39:00,
2013-02-03 06:45:00,-999.9,-99.9,29.99,North,32767,-999.0,0.0,255,-99.99,,,0.00,Wunderground v.1.15,2013-02-03 11:45:00,
2013-02-03 06:50:00,-999.9,-99.9,30.00,North,32767,-999.0,0.0,255,-99.99,,,0.00,Wunderground v.1.15,2013-02-03 11:50:00,
2013-02-03 06:54:00,-999.9,-99.9,30.00,North,32767,-999.0,0.0,255,-99.99,,,0.00,Wunderground v.1.15,2013-02-03 11:54:00,
2013-02-03 07:00:00,-999.9,-99.9,30.00,North,32767,-999.0,0.0,255,-99.99,,,0.00,Wunderground v.1.15,2013-02-03 12:00:00,
2013-02-03 07:10:00,-999.9,-99.9,30.00,North,32767,-999.0,0.0,255,-99.99,,,0.00,Wunderground v.1.15,2013-02-03 12:10:00,
2013-02-03 07:15:00,-999.9,-99.9,30.01,North,32767,-999.0,0.0,255,-99.99,,,0.00,Wunderground v.1.15,2013-02-03 12:15:00,
2013-02-03 07:19:00,-999.9,-99.9,30.01,North,32767,-999.0,0.0,255,-99.99,,,0.00,Wunderground v.1.15,2013-02-03 12:19:00,
2013-02-03 07:24:00,-999.9,-99.9,30.02,North,32767,-999.0,0.0,255,-99.99,,,0.00,Wunderground v.1.15,2013-02-03 12:24:00,
2013-02-03 07:30:00,-999.9,-99.9,30.03,North,32767,-999.0,0.0,255,-99.99,,,0.00,Wunderground v.1.15,2013-02-03 12:30:00,
2013-02-03 07:35:00,-999.9,-99.9,30.03,North,32767,-999.0,0.0,255,-99.99,,,0.00,Wunderground v.1.15,2013-02-03 12:35:00,
2013-02-03 07:40:00,-999.9,-99.9,30.02,North,32767,-999.0,0.0,255,-99.99,,,0.00,Wunderground v.1.15,2013-02-03 12:40:00,
2013-02-03 07:50:00,-999.9,-99.9,30.02,North,32767,-999.0,0.0,255,-99.99,,,0.00,Wunderground v.1.15,2013-02-03 12:50:00,
2013-02-03 07:55:00,-999.9,-99.9,30.02,North,32767,-999.0,0.0,255,-99.99,,,0.00,Wunderground v.1.15,2013-02-03 12:55:00,
2013-02-03 08:00:00,23.6,20.8,30.02,NW,312,0.0,0.0,89,0.00,,,0.00,Wunderground v.1.15,2013-02-03 13:00:00,
2013-02-03 08:09:00,23.8,21.0,30.02,NW,312,0.0,0.0,89,0.00,,,0.00,Wunderground v.1.15,2013-02-03 13:09:00,
2013-02-03 08:15:00,23.9,21.1,30.01,NNW,345,0.0,0.0,89,0.00,,,0.00,Wunderground v.1.15,2013-02-03 13:15:00,
2013-02-03 08:20:00,24.1,21.3,30.01,NNW,340,0.0,0.0,89,0.00,,,0.00,Wunderground v.1.15,2013-02-03 13:20:00,
2013-02-03 08:24:00,24.2,21.4,30.01,NNW,340,0.0,0.0,89,0.00,,,0.00,Wunderground v.1.15,2013-02-03 13:24:00,
2013-02-03 08:35:00,24.6,21.8,30.02,NNW,340,0.0,0.0,89,0.00,,,0.00,Wunderground v.1.15,2013-02-03 13:35:00,
2013-02-03 08:40:00,24.6,21.6,30.02,NNW,340,0.0,0.0,88,0.00,,,0.00,Wunderground v.1.15,2013-02-03 13:40:00,
2013-02-03 08:45:00,24.7,21.7,30.01,NNW,340,0.0,0.0,88,0.00,,,0.00,Wunderground v.1.15,2013-02-03 13:45:00,
2013-02-03 08:55:00,25.0,21.9,30.00,WNW,303,0.0,0.0,88,0.00,,,0.00,Wunderground v.1.15,2013-02-03 13:55:00,
2013-02-03 09:00:00,25.1,22.0,30.00,NW,309,0.0,2.0,88,0.00,,,0.00,Wunderground v.1.15,2013-02-03 14:00:00,
2013-02-03 09:05:00,25.3,22.2,29.99,WNW,288,0.0,2.0,88,0.00,,,0.00,Wunderground v.1.15,2013-02-03 14:05:00,
2013-02-03 09:10:00,25.4,22.3,29.99,NNW,328,0.0,2.0,88,0.00,,,0.00,Wunderground v.1.15,2013-02-03 14:10:00,
2013-02-03 09:20:00,25.8,22.7,29.99,NW,326,1.0,2.0,88,0.00,,,0.00,Wunderground v.1.15,2013-02-03 14:20:00,
2013-02-03 09:30:00,26.0,22.7,29.98,WNW,298,1.0,2.0,87,0.00,,,0.00,Wunderground v.1.15,2013-02-03 14:30:00,
2013-02-03 09:39:00,26.3,23.0,29.97,NW,307,1.0,2.0,87,0.00,,,0.00,Wunderground v.1.15,2013-02-03 14:39:00,
2013-02-03 09:45:00,26.3,23.0,29.97,North,352,1.0,2.0,87,0.00,,,0.00,Wunderground v.1.15,2013-02-03 14:45:00,
2013-02-03 09:50:00,26.5,23.2,29.97,NW,319,1.0,1.0,87,0.00,,,0.00,Wunderground v.1.15,2013-02-03 14:50:00,
2013-02-03 10:00:00,26.9,23.5,29.97,NNW,337,1.0,3.0,87,0.00,,,0.00,Wunderground v.1.15,2013-02-03 15:00:00,
2013-02-03 10:05:00,27.0,23.6,29.97,NW,315,1.0,3.0,87,0.00,,,0.00,Wunderground v.1.15,2013-02-03 15:05:00,
2013-02-03 10:10:00,27.3,23.9,29.96,NNW,338,1.0,3.0,87,0.00,,,0.00,Wunderground v.1.15,2013-02-03 15:10:00,
2013-02-03 10:19:00,27.7,24.3,29.96,WNW,303,1.0,1.0,87,0.00,,,0.00,Wunderground v.1.15,2013-02-03 15:19:00,
2013-02-03 10:25:00,28.0,24.4,29.95,NNW,340,1.0,3.0,86,0.00,,,0.00,Wunderground v.1.15,2013-02-03 15:25:00,
2013-02-03 10:35:00,28.4,24.5,29.94,NW,326,1.0,3.0,85,0.00,,,0.00,Wunderground v.1.15,2013-02-03 15:35:00,
2013-02-03 10:39:00,28.8,24.9,29.93,WNW,303,1.0,1.0,85,0.00,,,0.00,Wunderground v.1.15,2013-02-03 15:39:00,
2013-02-03 10:45:00,29.2,25.3,29.93,WNW,295,1.0,3.0,85,0.00,,,0.00,Wunderground v.1.15,2013-02-03 15:45:00,
2013-02-03 10:55:00,29.8,25.6,29.92,WNW,292,1.0,3.0,84,0.00,,,0.00,Wunderground v.1.15,2013-02-03 15:55:00,
2013-02-03 11:00:00,30.1,25.6,29.92,WNW,290,1.0,3.0,83,0.00,,,0.00,Wunderground v.1.15,2013-02-03 16:00:00,
2013-02-03 11:04:00,30.2,25.7,29.91,NW,310,2.0,3.0,83,0.00,,,0.00,Wunderground v.1.15,2013-02-03 16:04:00,
2013-02-03 11:10:00,30.2,25.4,29.91,NW,316,2.0,2.0,82,0.00,,,0.00,Wunderground v.1.15,2013-02-03 16:10:00,
2013-02-03 11:15:00,30.5,25.7,29.90,WNW,301,2.0,3.0,82,0.00,,,0.00,Wunderground v.1.15,2013-02-03 16:15:00,
2013-02-03 11:20:00,30.8,26.0,29.90,NW,307,1.0,3.0,82,0.00,,,0.00,Wunderground v.1.15,2013-02-03 16:20:00,
2013-02-03 11:29:00,31.0,25.6,29.89,NW,326,2.0,3.0,80,0.00,,,0.00,Wunderground v.1.15,2013-02-03 16:29:00,
2013-02-03 11:34:00,31.3,26.1,29.88,NNW,336,2.0,3.0,81,0.00,,,0.00,Wunderground v.1.15,2013-02-03 16:34:00,
2013-02-03 11:40:00,31.4,25.9,29.88,NNW,334,2.0,3.0,80,0.00,,,0.00,Wunderground v.1.15,2013-02-03 16:40:00,
2013-02-03 11:49:00,31.8,26.0,29.88,WNW,297,1.0,3.0,79,0.00,,,0.00,Wunderground v.1.15,2013-02-03 16:49:00,
2013-02-03 11:54:00,31.9,25.5,29.88,NE,47,1.0,3.0,77,0.00,,,0.00,Wunderground v.1.15,2013-02-03 16:54:00,
2013-02-03 12:00:00,32.0,25.3,29.88,NE,36,1.0,1.0,76,0.00,,,0.00,Wunderground v.1.15,2013-02-03 17:00:00,
2013-02-03 12:05:00,32.3,25.6,29.88,NW,311,1.0,3.0,76,0.00,,,0.00,Wunderground v.1.15,2013-02-03 17:05:00,
2013-02-03 12:10:00,32.4,25.7,29.87,NNW,336,1.0,3.0,76,0.00,,,0.00,Wunderground v.1.15,2013-02-03 17:10:00,
2013-02-03 12:14:00,32.3,25.6,29.87,NNW,342,1.0,3.0,76,0.00,,,0.00,Wunderground v.1.15,2013-02-03 17:14:00,
2013-02-03 12:20:00,32.6,25.9,29.87,ENE,60,1.0,1.0,76,0.00,,,0.01,Wunderground v.1.15,2013-02-03 17:20:00,
2013-02-03 12:25:00,33.1,26.4,29.86,WNW,292,0.0,2.0,76,0.00,,,0.01,Wunderground v.1.15,2013-02-03 17:25:00,
2013-02-03 12:34:00,33.6,26.2,29.86,West,276,1.0,3.0,74,0.00,,,0.01,Wunderground v.1.15,2013-02-03 17:34:00,
2013-02-03 12:39:00,33.7,26.3,29.86,WSW,239,0.0,3.0,74,0.00,,,0.01,Wunderground v.1.15,2013-02-03 17:39:00,
2013-02-03 12:45:00,34.1,26.3,29.85,WNW,287,0.0,3.0,73,0.00,,,0.01,Wunderground v.1.15,2013-02-03 17:45:00,
2013-02-03 12:54:00,34.5,25.7,29.85,NNE,13,0.0,3.0,70,0.00,,,0.01,Wunderground v.1.15,2013-02-03 17:54:00,
2013-02-03 13:00:00,34.3,24.8,29.84,West,274,1.0,1.0,68,0.00,,,0.01,Wunderground v.1.15,2013-02-03 18:00:00,
2013-02-03 13:10:00,34.3,24.8,29.83,NW,311,1.0,1.0,68,0.00,,,0.01,Wunderground v.1.15,2013-02-03 18:10:00,
2013-02-03 13:14:00,34.4,25.6,29.83,NW,311,1.0,3.0,70,0.00,,,0.01,Wunderground v.1.15,2013-02-03 18:14:00,
2013-02-03 13:24:00,34.0,25.6,29.82,WNW,292,1.0,3.0,71,0.00,,,0.01,Wunderground v.1.15,2013-02-03 18:24:00,
2013-02-03 13:30:00,34.6,26.2,29.81,WNW,295,1.0,3.0,71,0.00,,,0.01,Wunderground v.1.15,2013-02-03 18:30:00,
2013-02-03 13:35:00,34.8,26.7,29.81,NNW,346,1.0,3.0,72,0.00,,,0.01,Wunderground v.1.15,2013-02-03 18:35:00,
2013-02-03 13:39:00,34.7,26.9,29.81,NNW,335,2.0,3.0,73,0.00,,,0.01,Wunderground v.1.15,2013-02-03 18:39:00,
2013-02-03 13:44:00,34.6,26.8,29.81,NW,308,2.0,3.0,73,0.00,,,0.01,Wunderground v.1.15,2013-02-03 18:44:00,
2013-02-03 13:50:00,34.5,27.1,29.81,NW,304,2.0,3.0,74,0.00,,,0.01,Wunderground v.1.15,2013-02-03 18:50:00,
2013-02-03 13:55:00,34.2,26.4,29.81,NW,305,3.0,4.0,73,0.00,,,0.01,Wunderground v.1.15,2013-02-03 18:55:00,
2013-02-03 14:00:00,34.0,26.3,29.81,WNW,293,3.0,8.0,73,0.00,,,0.01,Wunderground v.1.15,2013-02-03 19:00:00,
2013-02-03 14:04:00,34.0,26.3,29.81,WNW,301,3.0,8.0,73,0.00,,,0.01,Wunderground v.1.15,2013-02-03 19:04:00,
2013-02-03 14:10:00,34.2,26.4,29.80,NW,314,3.0,3.0,73,0.00,,,0.01,Wunderground v.1.15,2013-02-03 19:10:00,
2013-02-03 14:20:00,34.6,26.5,29.80,WNW,297,1.0,8.0,72,0.00,,,0.01,Wunderground v.1.15,2013-02-03 19:20:00,
2013-02-03 14:24:00,34.8,26.4,29.80,NNE,19,1.0,8.0,71,0.00,,,0.01,Wunderground v.1.15,2013-02-03 19:24:00,
2013-02-03 14:35:00,34.5,25.7,29.80,North,349,2.0,8.0,70,0.00,,,0.01,Wunderground v.1.15,2013-02-03 19:35:00,
2013-02-03 14:44:00,33.7,25.3,29.80,North,11,3.0,8.0,71,0.00,,,0.01,Wunderground v.1.15,2013-02-03 19:44:00,
2013-02-03 14:55:00,33.5,24.8,29.79,NNW,334,2.0,8.0,70,0.00,,,0.01,Wunderground v.1.15,2013-02-03 19:55:00,
2013-02-03 15:00:00,33.5,24.4,29.80,NNW,329,2.0,5.0,69,0.00,,,0.01,Wunderground v.1.15,2013-02-03 20:00:00,
2013-02-03 15:05:00,33.3,24.6,29.80,NNW,342,2.0,5.0,70,0.00,,,0.01,Wunderground v.1.15,2013-02-03 20:05:00,
2013-02-03 15:09:00,33.5,25.4,29.79,North,349,2.0,5.0,72,0.00,,,0.01,Wunderground v.1.15,2013-02-03 20:09:00,
2013-02-03 15:15:00,33.3,25.6,29.80,North,351,2.0,5.0,73,0.00,,,0.01,Wunderground v.1.15,2013-02-03 20:15:00,
2013-02-03 15:20:00,32.8,25.1,29.79,NNE,21,3.0,3.0,73,0.00,,,0.01,Wunderground v.1.15,2013-02-03 20:20:00,
2013-02-03 15:25:00,32.7,25.0,29.79,NNE,21,3.0,4.0,73,0.00,,,0.01,Wunderground v.1.15,2013-02-03 20:25:00,
2013-02-03 15:29:00,32.5,24.8,29.79,NW,325,3.0,3.0,73,0.00,,,0.01,Wunderground v.1.15,2013-02-03 20:29:00,
2013-02-03 15:40:00,32.2,24.8,29.78,NNW,345,3.0,5.0,74,0.00,,,0.01,Wunderground v.1.15,2013-02-03 20:40:00,
2013-02-03 15:45:00,32.1,24.7,29.78,WNW,298,3.0,5.0,74,0.00,,,0.01,Wunderground v.1.15,2013-02-03 20:45:00,
2013-02-03 15:54:00,31.9,24.9,29.77,NNW,341,3.0,5.0,75,0.00,,,0.01,Wunderground v.1.15,2013-02-03 20:54:00,
2013-02-03 16:00:00,31.6,24.6,29.77,NNE,32,3.0,3.0,75,0.00,,,0.01,Wunderground v.1.15,2013-02-03 21:00:00,
2013-02-03 16:05:00,31.6,25.2,29.76,North,6,3.0,6.0,77,0.00,,,0.01,Wunderground v.1.15,2013-02-03 21:05:00,
2013-02-03 16:14:00,31.3,24.9,29.75,NNW,338,3.0,6.0,77,0.00,,,0.01,Wunderground v.1.15,2013-02-03 21:14:00,
2013-02-03 16:19:00,31.4,25.3,29.75,NNW,340,3.0,3.0,78,0.00,,,0.01,Wunderground v.1.15,2013-02-03 21:19:00,
2013-02-03 16:25:00,31.2,24.8,29.75,NNW,342,3.0,5.0,77,0.00,,,0.01,Wunderground v.1.15,2013-02-03 21:25:00,
2013-02-03 16:30:00,30.6,24.6,29.75,NNW,336,4.0,4.0,78,0.00,,,0.01,Wunderground v.1.15,2013-02-03 21:30:00,
2013-02-03 16:34:00,30.1,24.4,29.75,NW,323,4.0,6.0,79,0.00,,,0.01,Wunderground v.1.15,2013-02-03 21:34:00,
2013-02-03 16:45:00,29.3,24.2,29.75,NW,326,4.0,6.0,81,0.00,,,0.01,Wunderground v.1.15,2013-02-03 21:45:00,
2013-02-03 16:50:00,29.0,23.9,29.75,North,5,3.0,3.0,81,0.00,,,0.01,Wunderground v.1.15,2013-02-03 21:50:00,
2013-02-03 17:00:00,28.8,24.3,29.75,NW,321,4.0,4.0,83,0.00,,,0.01,Wunderground v.1.15,2013-02-03 22:00:00,
2013-02-03 17:10:00,28.6,24.1,29.75,NW,318,3.0,8.0,83,0.00,,,0.01,Wunderground v.1.15,2013-02-03 22:10:00,
2013-02-03 17:19:00,28.6,24.4,29.76,NW,316,3.0,3.0,84,0.00,,,0.01,Wunderground v.1.15,2013-02-03 22:19:00,
2013-02-03 17:24:00,28.7,24.5,29.76,NNW,337,2.0,8.0,84,0.00,,,0.01,Wunderground v.1.15,2013-02-03 22:24:00,
2013-02-03 17:35:00,28.7,24.5,29.76,NNW,330,2.0,8.0,84,0.00,,,0.01,Wunderground v.1.15,2013-02-03 22:35:00,
2013-02-03 17:39:00,28.5,24.3,29.76,NNW,328,2.0,8.0,84,0.00,,,0.01,Wunderground v.1.15,2013-02-03 22:39:00,
2013-02-03 17:49:00,28.6,24.4,29.76,NNW,346,3.0,8.0,84,0.00,,,0.01,Wunderground v.1.15,2013-02-03 22:49:00,
2013-02-03 17:55:00,28.6,24.4,29.76,NNW,340,3.0,8.0,84,0.00,,,0.01,Wunderground v.1.15,2013-02-03 22:55:00,
2013-02-03 18:00:00,28.6,24.4,29.76,WNW,297,3.0,3.0,84,0.00,,,0.01,Wunderground v.1.15,2013-02-03 23:00:00,
2013-02-03 18:09:00,28.5,24.0,29.77,WNW,303,3.0,9.0,83,0.00,,,0.01,Wunderground v.1.15,2013-02-03 23:09:00,
2013-02-03 18:15:00,28.5,24.0,29.76,NNW,340,3.0,9.0,83,0.00,,,0.01,Wunderground v.1.15,2013-02-03 23:15:00,
2013-02-03 18:20:00,28.4,23.9,29.77,WNW,291,3.0,9.0,83,0.00,,,0.01,Wunderground v.1.15,2013-02-03 23:20:00,
2013-02-03 18:25:00,28.3,23.8,29.76,WNW,295,4.0,9.0,83,0.00,,,0.01,Wunderground v.1.15,2013-02-03 23:25:00,
2013-02-03 18:35:00,28.3,24.1,29.76,NW,307,4.0,9.0,84,0.00,,,0.01,Wunderground v.1.15,2013-02-03 23:35:00,
2013-02-03 18:40:00,28.3,24.1,29.76,NNW,331,4.0,4.0,84,0.00,,,0.01,Wunderground v.1.15,2013-02-03 23:40:00,
2013-02-03 18:49:00,28.2,24.0,29.77,NNW,335,4.0,4.0,84,0.00,,,0.01,Wunderground v.1.15,2013-02-03 23:49:00,
2013-02-03 19:00:00,28.1,23.9,29.77,NW,324,3.0,6.0,84,0.00,,,0.01,Wunderground v.1.15,2013-02-04 00:00:00,
2013-02-03 19:05:00,28.1,23.9,29.77,WNW,298,3.0,6.0,84,0.00,,,0.01,Wunderground v.1.15,2013-02-04 00:05:00,
2013-02-03 19:09:00,28.0,23.8,29.76,NW,315,3.0,6.0,84,0.00,,,0.01,Wunderground v.1.15,2013-02-04 00:09:00,
2013-02-03 19:14:00,27.9,23.7,29.76,WNW,301,4.0,6.0,84,0.00,,,0.01,Wunderground v.1.15,2013-02-04 00:14:00,
2013-02-03 19:20:00,27.9,24.0,29.76,WNW,301,4.0,4.0,85,0.00,,,0.01,Wunderground v.1.15,2013-02-04 00:20:00,
2013-02-03 19:25:00,27.9,24.0,29.76,WNW,295,4.0,6.0,85,0.00,,,0.01,Wunderground v.1.15,2013-02-04 00:25:00,
2013-02-03 19:29:00,27.8,23.9,29.76,WNW,295,4.0,6.0,85,0.00,,,0.01,Wunderground v.1.15,2013-02-04 00:29:00,
2013-02-03 19:40:00,27.7,23.8,29.76,NW,308,4.0,6.0,85,0.00,,,0.01,Wunderground v.1.15,2013-02-04 00:40:00,
2013-02-03 19:50:00,27.6,23.4,29.76,NW,326,4.0,6.0,84,0.00,,,0.01,Wunderground v.1.15,2013-02-04 00:50:00,
2013-02-03 19:54:00,27.5,23.6,29.76,WNW,303,5.0,6.0,85,0.00,,,0.01,Wunderground v.1.15,2013-02-04 00:54:00,
2013-02-03 20:00:00,27.5,23.6,29.76,WNW,301,4.0,9.0,85,0.00,,,0.01,Wunderground v.1.15,2013-02-04 01:00:00,
2013-02-03 20:05:00,27.5,23.6,29.75,NW,326,4.0,9.0,85,0.00,,,0.01,Wunderground v.1.15,2013-02-04 01:05:00,
2013-02-03 20:10:00,27.4,23.5,29.75,WNW,297,4.0,9.0,85,0.00,,,0.01,Wunderground v.1.15,2013-02-04 01:10:00,
2013-02-03 20:15:00,27.4,23.5,29.75,NNW,334,4.0,9.0,85,0.00,,,0.01,Wunderground v.1.15,2013-02-04 01:15:00,
2013-02-03 20:24:00,27.2,23.3,29.75,NNW,332,4.0,6.0,85,0.00,,,0.01,Wunderground v.1.15,2013-02-04 01:24:00,
2013-02-03 20:30:00,27.1,23.2,29.74,NW,326,5.0,5.0,85,0.00,,,0.01,Wunderground v.1.15,2013-02-04 01:30:00,
2013-02-03 20:35:00,27.0,23.1,29.75,NW,326,4.0,9.0,85,0.00,,,0.01,Wunderground v.1.15,2013-02-04 01:35:00,
2013-02-03 20:39:00,26.9,23.0,29.74,NW,307,4.0,4.0,85,0.00,,,0.01,Wunderground v.1.15,2013-02-04 01:39:00,
2013-02-03 20:44:00,26.9,23.0,29.74,NW,314,4.0,5.0,85,0.00,,,0.01,Wunderground v.1.15,2013-02-04 01:44:00,
2013-02-03 20:50:00,26.8,22.9,29.74,NW,321,5.0,5.0,85,0.00,,,0.01,Wunderground v.1.15,2013-02-04 01:50:00,
2013-02-03 20:55:00,26.8,22.9,29.74,WNW,301,5.0,9.0,85,0.00,,,0.01,Wunderground v.1.15,2013-02-04 01:55:00,
2013-02-03 21:00:00,26.7,22.8,29.74,NNW,342,4.0,9.0,85,0.00,,,0.01,Wunderground v.1.15,2013-02-04 02:00:00,
2013-02-03 21:04:00,26.7,23.1,29.74,NNW,346,4.0,9.0,86,0.00,,,0.01,Wunderground v.1.15,2013-02-04 02:04:00,
2013-02-03 21:10:00,26.7,23.1,29.73,NW,315,4.0,4.0,86,0.00,,,0.01,Wunderground v.1.15,2013-02-04 02:10:00,
2013-02-03 21:20:00,26.5,22.9,29.74,NW,311,4.0,4.0,86,0.00,,,0.01,Wunderground v.1.15,2013-02-04 02:20:00,
2013-02-03 21:24:00,26.5,22.9,29.73,NW,323,4.0,9.0,86,0.00,,,0.01,Wunderground v.1.15,2013-02-04 02:24:00,
2013-02-03 21:35:00,26.5,22.9,29.73,NW,314,5.0,9.0,86,0.00,,,0.01,Wunderground v.1.15,2013-02-04 02:35:00,
2013-02-03 21:40:00,26.5,22.9,29.73,WNW,303,4.0,9.0,86,0.00,,,0.01,Wunderground v.1.15,2013-02-04 02:40:00,
2013-02-03 21:44:00,26.4,22.8,29.73,NW,307,4.0,9.0,86,0.00,,,0.01,Wunderground v.1.15,2013-02-04 02:44:00,
2013-02-03 21:54:00,26.5,22.6,29.74,WNW,295,5.0,9.0,85,0.00,,,0.01,Wunderground v.1.15,2013-02-04 02:54:00,
2013-02-03 22:00:00,26.5,22.6,29.74,NNW,330,5.0,5.0,85,0.00,,,0.01,Wunderground v.1.15,2013-02-04 03:00:00,
2013-02-03 22:09:00,26.5,22.6,29.74,NW,307,5.0,5.0,85,0.00,,,0.01,Wunderground v.1.15,2013-02-04 03:09:00,
2013-02-03 22:14:00,26.6,22.7,29.74,NW,309,4.0,12.0,85,0.00,,,0.01,Wunderground v.1.15,2013-02-04 03:14:00,
2013-02-03 22:20:00,26.7,22.8,29.74,WNW,295,4.0,12.0,85,0.00,,,0.01,Wunderground v.1.15,2013-02-04 03:20:00,
2013-02-03 22:29:00,26.7,22.5,29.74,WNW,293,5.0,12.0,84,0.00,,,0.01,Wunderground v.1.15,2013-02-04 03:29:00,
2013-02-03 22:34:00,26.8,22.9,29.75,West,279,5.0,12.0,85,0.00,,,0.01,Wunderground v.1.15,2013-02-04 03:34:00,
2013-02-03 22:40:00,26.7,22.8,29.74,WNW,298,5.0,12.0,85,0.00,,,0.01,Wunderground v.1.15,2013-02-04 03:40:00,
2013-02-03 22:50:00,26.6,23.0,29.75,NNW,343,6.0,6.0,86,0.00,,,0.01,Wunderground v.1.15,2013-02-04 03:50:00,
2013-02-03 23:00:00,26.4,23.1,29.75,NNW,332,5.0,11.0,87,0.00,,,0.01,Wunderground v.1.15,2013-02-04 04:00:00,
2013-02-03 23:05:00,26.2,22.9,29.75,NNW,333,6.0,11.0,87,0.00,,,0.01,Wunderground v.1.15,2013-02-04 04:05:00,
2013-02-03 23:10:00,26.1,23.0,29.75,NNW,329,6.0,6.0,88,0.00,,,0.01,Wunderground v.1.15,2013-02-04 04:10:00,
2013-02-03 23:19:00,26.0,23.2,29.75,WNW,283,5.0,11.0,89,0.00,,,0.01,Wunderground v.1.15,2013-02-04 04:19:00,
2013-02-03 23:25:00,26.1,23.3,29.75,WNW,288,6.0,11.0,89,0.00,,,0.01,Wunderground v.1.15,2013-02-04 04:25:00,
2013-02-03 23:34:00,26.1,23.3,29.76,WNW,301,4.0,6.0,89,0.00,,,0.01,Wunderground v.1.15,2013-02-04 04:34:00,
2013-02-03 23:39:00,26.0,23.2,29.75,NW,304,4.0,11.0,89,0.00,,,0.01,Wunderground v.1.15,2013-02-04 04:39:00,
2013-02-03 23:45:00,25.9,23.1,29.76,NW,307,4.0,11.0,89,0.00,,,0.01,Wunderground v.1.15,2013-02-04 04:45:00,
2013-02-03 23:50:00,25.9,23.1,29.76,NW,308,4.0,11.0,89,0.00,,,0.01,Wunderground v.1.15,2013-02-04 04:50:00,
2013-02-03 23:54:00,25.9,23.1,29.76,NW,315,4.0,11.0,89,0.00,,,0.01,Wunderground v.1.15,2013-02-04 04:54:00,